Torna al catalogo

STARLINK-37637

AttivoComunicazioniSSO
NORAD 69026·PAYLOAD·🇺🇸 United States

Lanciato May 6, 2026 da Vandenberg Space Force Base

Loading…

Prossimi Passaggi (prossime 24 ore)

TLE

AggiornatoSource: CelesTrak SupGP

Epoca: Sep 15, 2026, 03:31 UTC

1 69026C 26101B   26258.14701389 -.00025298  00000+0 -78577-3 0  2581
2 69026  97.2844 111.7244 0001915 106.7292 112.2976 15.33432366    17

Traccia STARLINK-37637 in tempo reale con AllMySat

Download on the App Store